Regional Weather Roundup
Issued by NWS Cleveland, OH

Home | Current Version | Previous Version | Graphics & Text | Print | Product List | Glossary On
Versions: 1 2 3 4 5 6 7 8 9 10 11 12 13 14 15 16 17 18 19 20 21 22 23 24 25 26 27 28 29 30 31 32 33 34 35 36 37 38 39 40 41 42 43 44 45 46 47 48 49 50
294
ASUS41 KCLE 060202
RWRCLE
OHIO REGIONAL WEATHER ROUNDUP
NATIONAL WEATHER SERVICE CLEVELAND, OH
1000 PM EDT THU MAY 05 2016

NOTE: "FAIR" INDICATES FEW OR NO CLOUDS BELOW 12,000 FEET WITH NO
SIGNIFICANT WEATHER AND/OR OBSTRUCTIONS TO VISIBILITY.

OHZ001>008-015>018-024>027-034-035-043-044-060300-
   NORTHWEST OHIO

CITY           SKY/WX    TMP DP  RH WIND       PRES   REMARKS
DEFIANCE       CLEAR     58  37  45 N7        29.90R
FINDLAY        CLEAR     56  37  49 N6        29.87R
TOLEDO EXPRESS CLEAR     55  39  54 N6        29.89R
TOLEDO EXEC    CLEAR     55  40  56 CALM      29.89R
LIMA           MOCLDY    53  45  74 N3        29.88R
$$

OHZ009>014-019>023-028>033-038-089-060300-
   NORTHEAST OHIO

CITY           SKY/WX    TMP DP  RH WIND       PRES   REMARKS
CLE-HOPKINS    PTCLDY    51  45  79 NW6       29.87R
CLE-LAKEFRONT  CLEAR     50  46  86 NW6       29.84R
CUY CO. ARPT   PTCLDY    48  46  93 CALM      29.85R
LORAIN-ELYRIA  CLOUDY    51  44  77 CALM      29.86R
ASHTABULA      CLEAR     50  43  77 NW6       29.83R
AKRON-CANTON   PTCLDY    52  41  66 N10       29.81R
WOOSTER        CLEAR     49  44  83 N10       29.84R
MANSFIELD      CLOUDY    49  43  80 N5        29.85R
YOUNGSTOWN     PTCLDY    50  42  74 N9        29.80R
$$

OHZ042-051>053-060>062-070>072-077>081-060300-
  SOUTHWEST OHIO

CITY           SKY/WX    TMP DP  RH WIND       PRES   REMARKS
CINC-COVINGTON MOCLDY    51  47  86 NW6       29.88R
CINC-LUNKEN    CLOUDY    54  49  83 CALM      29.88R
HAMILTON       CLOUDY    53  47  79 NW5       29.89R
DAYTON         MOCLDY    53  42  66 NW6       29.89R
WRIGHT-PAT AFB PTCLDY    52  43  72 CALM      29.87R
DAYTON GENERAL MOCLDY    55  41  59 N6        29.87R
WILMINGTON     CLEAR     51  38  60 N6        29.87R
$$

OHZ036-037-039>041-045>050-054>059-063>069-073>076-082>088-060300-
  CENTRAL AND SOUTHEAST OHIO

CITY           SKY/WX    TMP DP  RH WIND       PRES   REMARKS
COLUMBUS       PTCLDY    53  42  66 N7        29.83R
OSU AIRPORT    PTCLDY    52  41  66 N7        29.84R
BOLTON FIELD   NOT AVBL
RICKENBACK AFB CLOUDY    55  41  60 N8        29.83R
NEWARK         CLEAR     56  41  57 N7        29.82R
MARION         PTCLDY    51  41  68 N8        29.87R
LANCASTER      CLEAR     53  42  66 N5        29.83R
ZANESVILLE     CLEAR     56  41  57 N8        29.80R
NEW PHILLY     PTCLDY    54  41  61 NW7       29.80R
$$




USA.gov is the U.S. government's official web portal to all federal, state and local government web resources and services.